Location: Bonaustraße
(48.4603°N, 11.9280°E)
Time: 08:48:56
(UTC+01:00)

Envisat - Visible Passes

Search period start: 21 January 2021 00:00
Search period end: 31 January 2021 00:00
Orbit: 764 x 766 km, 98.1° (Epoch: 20 January)

Date Brightness Start Highest point End Pass type
(mag) Time Alt. Az. Time Alt. Az. Time Alt. Az.
21 Jan 5.8 04:45:43 10° NE 04:48:56 17° E 04:52:08 10° SE visible
21 Jan 2.9 06:23:26 10° N 06:28:32 74° WNW 06:33:34 10° SSW visible
21 Jan 4.6 17:42:07 10° SSW 17:46:52 39° W 17:51:37 10° NNW visible
22 Jan 3.7 05:46:39 10° NNE 05:51:40 55° E 05:56:39 10° S visible
22 Jan 6.3 18:48:07 10° WSW 18:49:46 11° W 18:51:26 10° WNW visible
23 Jan 5.1 05:10:18 10° NE 05:14:37 27° E 05:18:55 10° SSE visible
23 Jan 3.3 06:49:00 10° N 06:53:50 45° WNW 06:58:39 10° SW visible
23 Jan 5.6 18:08:24 10° SW 18:12:28 24° W 18:16:34 10° NW visible
24 Jan 6.0 04:34:57 10° ENE 04:37:22 13° E 04:39:46 10° ESE visible
24 Jan 3.0 06:12:00 10° NNE 06:17:07 90° WSW 06:22:12 10° SSW visible
24 Jan 4.2 17:30:29 10° S 17:35:23 48° W 17:40:19 10° NNW visible
25 Jan 4.1 05:35:20 10° NNE 05:40:13 44° E 05:45:03 10° S visible
25 Jan 3.8 07:14:43 10° N 07:19:03 29° WNW 07:23:22 10° WSW visible
25 Jan 6.1 18:35:27 10° WSW 18:38:11 15° W 18:40:57 10° NW visible
26 Jan 5.4 04:59:10 10° NE 05:03:06 22° E 05:07:01 10° SE visible
26 Jan 3.1 06:37:30 10° N 06:42:28 56° WNW 06:47:25 10° SSW visible
26 Jan 5.2 17:56:33 10° SSW 18:00:57 29° W 18:05:24 10° NNW visible
27 Jan 6.3 04:24:56 10° ENE 04:25:46 10° E 04:26:37 10° E visible
27 Jan 3.2 06:00:36 10° NNE 06:05:42 74° ESE 06:10:47 10° S visible
28 Jan 4.6 05:24:03 10° NNE 05:28:44 36° E 05:33:23 10° SSE visible
28 Jan 3.6 07:03:09 10° N 07:07:44 35° WNW 07:12:17 10° SW visible
28 Jan 6.0 18:23:11 10° SW 18:26:38 18° W 18:30:05 10° NW visible
29 Jan 5.7 04:48:07 10° NE 04:51:34 18° E 04:54:59 10° SE visible
29 Jan 2.9 06:26:02 10° N 06:31:05 69° WNW 06:36:08 10° SSW visible
29 Jan 4.8 17:44:48 10° SSW 17:49:28 36° W 17:54:10 10° NNW visible
30 Jan 3.6 05:49:13 10° NNE 05:54:16 60° E 05:59:17 10° S visible
30 Jan 6.5 18:51:27 10° W 18:52:25 10° W 18:53:22 10° WNW visible
